Weather History for KPOF - September, 2013

Change the Weather History Date:

Wednesday, September 25, 2013

  Actual Average Record
Temperature  
Mean Temperature 74 °F -  
Max Temperature 82 °F 74 °F 95 °F (1939)
Min Temperature 64 °F 54 °F 38 °F (1950)
Cooling Degree Days 8    
Growing Degree Days 24 (Base 50)    
Moisture  
Dew Point 66 °F    
Average Humidity 84    
Maximum Humidity 94    
Minimum Humidity 62    
Precipitation  
Precipitation 1.04 in - - ()
Sea Level Pressure  
Sea Level Pressure 29.81 in    
Wind  
Wind Speed 4 mph (NE)    
Max Wind Speed 13 mph    
Max Gust Speed -    
Visibility 7 miles    
Events Rain , Thunderstorm    
Averages and records for this station are not official NWS values.
T = Trace of Precipitation, MM = Missing Value Source: NWS Daily Summary

Daily Weather History Graph

Daily Weather History Graph

Search for Another Location

Airport or City:

Trip Planner

Search our weather history database for the weather conditions in past years. The results will help you decide how hot, cold, wet, or windy it might be!

Date:

Astronomy

Sep. 25, 2013 Rise Set
Actual Time 6:51 AM CDT 6:53 PM CDT
Civil Twilight 6:26 AM CDT 7:19 PM CDT
Nautical Twilight 5:55 AM CDT 7:49 PM CDT
Astronomical Twilight 5:25 AM CDT 8:19 PM CDT
Moon 11:07 PM CDT (9/25) 12:49 PM CDT (9/25)
Length of Visible Light 12h 53m
Length of Day
12h 01m
Waning Gibbous, 64% of the Moon is Illuminated
Sep 25
Waning Gibbous
Sep 26
Last Quarter
Oct 4
New
Oct 11
First Quarter
Oct 18
Full

Hourly Weather History & Observations

Time (CDT) Temp. Heat Index Dew Point Humidity Pressure Visibility Wind Dir Wind Speed Gust Speed Precip Events Conditions
12:53 AM 72.0 °F - 68.0 °F 87% 29.77 in 9.0 mi ESE 6.9 mph - N/A Thunderstorm Overcast
1:03 AM 71.6 °F - 68.0 °F 88% 29.79 in 1.8 mi SSE 10.4 mph - 0.06 in Rain , Thunderstorm Heavy Rain
1:14 AM 69.8 °F - 68.0 °F 94% 29.80 in 0.8 mi SW 12.7 mph - 0.57 in Rain , Thunderstorm Heavy Rain
1:23 AM 69.8 °F - 66.2 °F 88% 29.80 in 1.0 mi Variable 6.9 mph - 0.95 in Rain , Thunderstorm Heavy Rain
1:28 AM 69.8 °F - 66.2 °F 88% 29.80 in 1.5 mi WNW 6.9 mph - 0.99 in Rain Heavy Rain
1:30 AM 69.8 °F - 64.4 °F 83% 29.80 in 2.0 mi WNW 5.8 mph - 1.00 in Rain Heavy Rain
1:40 AM 69.8 °F - 64.4 °F 83% 29.79 in 5.0 mi Calm Calm - 1.03 in Rain Light Rain
1:53 AM 69.1 °F - 64.9 °F 87% 29.77 in 9.0 mi ENE 3.5 mph - 1.04 in Rain Light Rain
2:53 AM 69.1 °F - 64.9 °F 87% 29.77 in 10.0 mi Calm Calm - 0.00 in   Overcast
3:53 AM 68.0 °F - 64.9 °F 90% 29.76 in 9.0 mi Calm Calm - N/A   Mostly Cloudy
4:12 AM 66.2 °F - 64.4 °F 94% 29.78 in 6.0 mi Calm Calm - N/A   Overcast
4:53 AM 66.9 °F - 64.9 °F 93% 29.77 in 5.0 mi Calm Calm - N/A   Overcast
5:09 AM 66.2 °F - 64.4 °F 94% 29.78 in 2.0 mi Calm Calm - N/A   Overcast
5:15 AM 66.2 °F - 64.4 °F 94% 29.78 in 0.8 mi Calm Calm - N/A   Overcast
5:48 AM 66.2 °F - 64.4 °F 94% 29.78 in 1.8 mi Calm Calm - N/A   Overcast
5:53 AM 66.9 °F - 64.9 °F 93% 29.77 in 4.0 mi Calm Calm - N/A   Overcast
6:48 AM 68.0 °F - 64.4 °F 88% 29.80 in 8.0 mi Calm Calm - N/A   Overcast
6:53 AM 68.0 °F - 64.9 °F 90% 29.79 in 7.0 mi Calm Calm - N/A   Overcast
7:53 AM 68.0 °F - 64.9 °F 90% 29.80 in 6.0 mi Calm Calm - N/A   Overcast
8:02 AM 68.0 °F - 64.4 °F 88% 29.81 in 8.0 mi Calm Calm - N/A   Overcast
8:53 AM 69.1 °F - 64.9 °F 87% 29.81 in 10.0 mi Calm Calm - N/A   Overcast
9:34 AM 69.8 °F - 64.4 °F 83% 29.83 in 7.0 mi NE 5.8 mph - N/A   Overcast
9:51 AM 69.8 °F - 66.2 °F 88% 29.83 in 2.5 mi NE 4.6 mph - N/A   Overcast
9:53 AM 69.1 °F - 66.0 °F 90% 29.82 in 2.5 mi NNE 5.8 mph - N/A   Overcast
9:57 AM 69.8 °F - 64.4 °F 83% 29.84 in 3.0 mi NNE 5.8 mph - N/A   Overcast
10:53 AM 70.0 °F - 66.0 °F 87% 29.84 in 8.0 mi NNE 6.9 mph - N/A   Overcast
11:30 AM 71.6 °F - 66.2 °F 83% 29.85 in 10.0 mi NNE 4.6 mph - N/A   Overcast
11:53 AM 73.0 °F - 66.0 °F 79% 29.84 in 10.0 mi NNE 3.5 mph - N/A   Overcast
12:10 PM 73.4 °F - 66.2 °F 78% 29.85 in 10.0 mi NNE 3.5 mph - N/A   Overcast
12:35 PM 73.4 °F - 66.2 °F 78% 29.85 in 10.0 mi Calm Calm - N/A   Mostly Cloudy
12:53 PM 75.9 °F - 66.9 °F 74% 29.83 in 10.0 mi NE 3.5 mph - N/A   Mostly Cloudy
1:04 PM 75.2 °F - 66.2 °F 73% 29.84 in 10.0 mi Calm Calm - N/A   Mostly Cloudy
1:39 PM 77.0 °F - 66.2 °F 69% 29.83 in 10.0 mi Calm Calm - N/A   Scattered Clouds
1:53 PM 77.0 °F - 66.0 °F 69% 29.81 in 10.0 mi Calm Calm - N/A   Scattered Clouds
2:53 PM 80.1 °F 82.1 °F 66.0 °F 62% 29.80 in 10.0 mi ENE 4.6 mph - N/A   Partly Cloudy
3:53 PM 81.0 °F 83.3 °F 66.9 °F 62% 29.80 in 10.0 mi ENE 4.6 mph - N/A   Partly Cloudy
4:53 PM 80.1 °F 82.1 °F 66.0 °F 62% 29.80 in 10.0 mi Calm Calm - N/A   Mostly Cloudy
5:53 PM 78.1 °F - 66.9 °F 68% 29.81 in 10.0 mi ENE 4.6 mph - N/A   Overcast
6:53 PM 75.0 °F - 70.0 °F 84% 29.82 in 10.0 mi Calm Calm - N/A   Mostly Cloudy
7:53 PM 71.1 °F - 66.9 °F 87% 29.83 in 7.0 mi Calm Calm - N/A   Clear
8:53 PM 69.1 °F - 66.0 °F 90% 29.84 in 7.0 mi Calm Calm - N/A   Clear
9:53 PM 68.0 °F - 64.0 °F 87% 29.85 in 6.0 mi Calm Calm - N/A   Clear
10:53 PM 66.0 °F - 63.0 °F 90% 29.86 in 5.0 mi Calm Calm - N/A   Clear
11:53 PM 64.9 °F - 62.1 °F 90% 29.86 in 7.0 mi Calm Calm - N/A   Clear